Weather History for Huron, SD

Change the Weather History Date:

Monday, January 14, 2013

  Actual Average Record
Temperature  
Mean Temperature 6 °F 16 °F  
Max Temperature 14 °F 27 °F 56 °F (1901)
Min Temperature -2 °F 6 °F -32 °F (1888)
Degree Days  
Heating Degree Days 59 49  
Month to date heating degree days 653 684  
Since 1 July heating degree days 3727 3804  
Cooling Degree Days 0 0  
Month to date cooling degree days 0 0  
Year to date cooling degree days 0 0  
Moisture  
Dew Point 1 °F    
Average Humidity 79    
Maximum Humidity 87    
Minimum Humidity 70    
Precipitation  
Precipitation 0.00 in 0.01 in 0.81 in (1952)
Month to date precipitation 0.03 0.23  
Year to date precipitation 0.03 0.23  
Snow  
Snow 0.00 in 0.20 in 7.30 in (1952)
Month to date snowfall 1.0 3.3  
Since 1 July snowfall 15.1 19.6  
Snow Depth 4.00 in    
Sea Level Pressure  
Sea Level Pressure 30.36 in    
Wind  
Wind Speed 5 mph (SW)    
Max Wind Speed 13 mph    
Max Gust Speed 16 mph    
Visibility 9 miles    
Events      
T = Trace of Precipitation, MM = Missing Value Source: NWS Daily Summary

Daily Weather History Graph

Daily Weather History Graph

Search for Another Location

Airport:

Trip Planner

Search our weather history database for the weather conditions in past years. The results will help you decide how hot, cold, wet, or windy it might be!

Date:

Astronomy

Jan. 14, 2013 Rise Set
Actual Time 8:05 AM CST 5:18 PM CST
Civil Twilight 7:33 AM CST 5:51 PM CST
Nautical Twilight 6:57 AM CST 6:27 PM CST
Astronomical Twilight 6:22 AM CST 7:01 PM CST
Moon 9:31 AM CST (1/14) 9:16 PM CST (1/14)
Length of Visible Light 10h 17m
Length of Day
9h 12m
Waxing Crescent, 11% of the Moon is Illuminated
Jan 14
Waxing Crescent
Jan 18
First Quarter
Jan 26
Full
Feb 3
Last Quarter
Feb 10
New

Hourly Weather History & Observations

Time (CST) Temp. Windchill Dew Point Humidity Pressure Visibility Wind Dir Wind Speed Gust Speed Precip Events Conditions
12:55 AM 9.0 °F -5.9 °F 3.0 °F 77% 30.35 in 10.0 mi North 11.5 mph - N/A   Overcast
1:30 AM 6.8 °F -7.8 °F 1.4 °F 79% 30.27 in 10.0 mi North 10.4 mph - N/A   Scattered Clouds
1:55 AM 5.0 °F -8.1 °F -0.9 °F 76% 30.37 in 10.0 mi NNW 8.1 mph - N/A   Clear
2:55 AM 3.0 °F -4.4 °F -2.0 °F 80% 30.38 in 10.0 mi NNW 3.5 mph - N/A   Mostly Cloudy
3:27 AM 1.4 °F -8.3 °F -2.2 °F 85% 30.31 in 10.0 mi WNW 4.6 mph - N/A   Overcast
3:55 AM 3.2 °F -6.2 °F -2.2 °F 78% 30.31 in 10.0 mi NW 4.6 mph - N/A   Overcast
4:55 AM 1.9 °F -5.6 °F -2.0 °F 83% 30.40 in 10.0 mi WNW 3.5 mph - N/A   Partly Cloudy
5:55 AM 1.0 °F - -2.0 °F 87% 30.41 in 9.0 mi Calm Calm - N/A   Clear
6:55 AM -0.9 °F -8.9 °F -5.1 °F 83% 30.43 in 8.0 mi West 3.5 mph - N/A   Clear
7:55 AM -2.0 °F - -5.1 °F 87% 30.44 in 6.0 mi Calm Calm - N/A   Clear
8:55 AM 1.0 °F - -2.0 °F 87% 30.47 in 5.0 mi Calm Calm - N/A   Clear
9:55 AM 3.9 °F -6.9 °F -0.0 °F 84% 30.45 in 8.0 mi South 5.8 mph - N/A   Partly Cloudy
10:55 AM 6.1 °F -7.8 °F -0.9 °F 73% 30.44 in 10.0 mi South 9.2 mph - N/A   Overcast
11:55 AM 8.1 °F -4.3 °F 1.0 °F 73% 30.40 in 10.0 mi South 8.1 mph - N/A   Clear
12:55 PM 10.0 °F 0.4 °F 3.0 °F 73% 30.36 in 10.0 mi SSE 5.8 mph - N/A   Overcast
1:55 PM 10.9 °F -0.8 °F 5.0 °F 77% 30.33 in 10.0 mi South 8.1 mph - N/A   Clear
2:55 PM 12.9 °F -0.2 °F 5.0 °F 71% 30.33 in 10.0 mi SSE 10.4 mph - N/A   Clear
3:55 PM 12.9 °F -0.2 °F 6.1 °F 74% 30.33 in 10.0 mi South 10.4 mph - N/A   Partly Cloudy
4:55 PM 12.9 °F 1.6 °F 6.1 °F 74% 30.33 in 10.0 mi SSW 8.1 mph - N/A   Clear
5:55 PM 12.0 °F 0.5 °F 5.0 °F 73% 30.32 in 10.0 mi South 8.1 mph - N/A   Clear
6:55 PM 9.0 °F -0.9 °F 3.9 °F 80% 30.34 in 10.0 mi SW 5.8 mph - N/A   Clear
7:55 PM 10.0 °F -0.9 °F 3.0 °F 73% 30.33 in 10.0 mi SW 6.9 mph - N/A   Clear
8:55 PM 7.0 °F 0.1 °F 1.9 °F 80% 30.33 in 10.0 mi South 3.5 mph - N/A   Clear
9:55 PM 7.0 °F 0.1 °F 1.9 °F 80% 30.32 in 10.0 mi SW 3.5 mph - N/A   Clear
10:55 PM 7.0 °F - 1.0 °F 77% 30.31 in 10.0 mi Calm Calm - N/A   Partly Cloudy
11:55 PM 5.0 °F -2.1 °F 1.0 °F 84% 30.30 in 10.0 mi SSE 3.5 mph - N/A   Overcast